Weather History for KJHW - June, 2013

Change the Weather History Date:

Tuesday, June 11, 2013

  Actual Average Record
Temperature  
Mean Temperature 62 °F -  
Max Temperature 64 °F 74 °F 87 °F (1984)
Min Temperature 59 °F 47 °F 30 °F (1987)
Degree Days  
Heating Degree Days 4    
Growing Degree Days 12 (Base 50)    
Moisture  
Dew Point 58 °F    
Average Humidity 88    
Maximum Humidity 94    
Minimum Humidity 77    
Precipitation  
Precipitation 0.14 in - - ()
Sea Level Pressure  
Sea Level Pressure 29.83 in    
Wind  
Wind Speed 11 mph (West)    
Max Wind Speed 18 mph    
Max Gust Speed 24 mph    
Visibility 8 miles    
Events      
Averages and records for this station are not official NWS values.
T = Trace of Precipitation, MM = Missing Value Source: NWS Daily Summary

Daily Weather History Graph

Daily Weather History Graph

Search for Another Location

Airport or City:

Trip Planner

Search our weather history database for the weather conditions in past years. The results will help you decide how hot, cold, wet, or windy it might be!

Date:

Astronomy

Jun. 11, 2013 Rise Set
Actual Time 5:40 AM EDT 8:53 PM EDT
Civil Twilight 5:06 AM EDT 9:27 PM EDT
Nautical Twilight 4:21 AM EDT 10:12 PM EDT
Astronomical Twilight 3:28 AM EDT 11:05 PM EDT
Moon 8:24 AM EDT (6/11) 10:52 PM EDT (6/11)
Length of Visible Light 16h 21m
Length of Day
15h 12m
Waxing Crescent, 8% of the Moon is Illuminated
Jun 11
Waxing Crescent
Jun 16
First Quarter
Jun 23
Full
Jun 30
Last Quarter
Jul 8
New

Hourly Weather History & Observations

Time (EDT) Temp. Dew Point Humidity Pressure Visibility Wind Dir Wind Speed Gust Speed Precip Events Conditions
12:15 AM 62.6 °F 60.8 °F 94% 29.79 in 10.0 mi WSW 10.4 mph - N/A   Mostly Cloudy
12:35 AM 62.6 °F 60.8 °F 94% 29.79 in 10.0 mi SW 8.1 mph - N/A   Overcast
12:55 AM 62.6 °F 60.8 °F 94% 29.79 in 10.0 mi SW 8.1 mph - N/A   Overcast
1:15 AM 62.6 °F 60.8 °F 94% 29.78 in 10.0 mi SW 6.9 mph - N/A   Overcast
1:35 AM 62.6 °F 60.8 °F 94% 29.78 in 10.0 mi SW 8.1 mph - N/A   Mostly Cloudy
1:55 AM 62.6 °F 60.8 °F 94% 29.77 in 10.0 mi SW 10.4 mph - N/A   Overcast
2:15 AM 62.6 °F 60.8 °F 94% 29.76 in 9.0 mi SW 10.4 mph - N/A   Overcast
2:35 AM 62.6 °F 60.8 °F 94% 29.76 in 10.0 mi SW 11.5 mph - N/A   Overcast
2:55 AM 62.6 °F 60.8 °F 94% 29.76 in 8.0 mi SW 10.4 mph - N/A   Overcast
3:15 AM 62.6 °F 60.8 °F 94% 29.76 in 7.0 mi SW 12.7 mph - N/A   Overcast
3:35 AM 62.6 °F 60.8 °F 94% 29.75 in 5.0 mi SW 10.4 mph - N/A   Overcast
3:55 AM 62.6 °F 60.8 °F 94% 29.75 in 5.0 mi WSW 9.2 mph - N/A   Overcast
4:15 AM 62.6 °F 60.8 °F 94% 29.75 in 6.0 mi WSW 10.4 mph - N/A   Overcast
4:35 AM 62.6 °F 60.8 °F 94% 29.74 in 7.0 mi WSW 12.7 mph 20.7 mph 0.03 in   Overcast
4:55 AM 62.6 °F 60.8 °F 94% 29.75 in 9.0 mi West 10.4 mph - 0.04 in   Overcast
5:15 AM 62.6 °F 59.0 °F 88% 29.75 in 5.0 mi WSW 11.5 mph 21.9 mph 0.04 in   Overcast
5:35 AM 60.8 °F 59.0 °F 94% 29.75 in 8.0 mi WSW 12.7 mph 17.3 mph 0.06 in   Overcast
5:55 AM 60.8 °F 59.0 °F 94% 29.75 in 3.0 mi WSW 11.5 mph - 0.07 in   Overcast
6:15 AM 60.8 °F 59.0 °F 94% 29.76 in 4.0 mi West 12.7 mph - 0.01 in   Overcast
6:35 AM 60.8 °F 59.0 °F 94% 29.77 in 2.5 mi West 13.8 mph 19.6 mph 0.01 in   Overcast
6:55 AM 60.8 °F 57.2 °F 88% 29.77 in 4.0 mi West 11.5 mph 18.4 mph 0.02 in   Overcast
7:15 AM 60.8 °F 57.2 °F 88% 29.78 in 1.8 mi WNW 13.8 mph 24.2 mph N/A   Overcast
7:35 AM 60.8 °F 57.2 °F 88% 29.79 in 1.5 mi West 8.1 mph 18.4 mph N/A   Overcast
7:55 AM 60.8 °F 57.2 °F 88% 29.79 in 1.8 mi WNW 12.7 mph 17.3 mph N/A   Overcast
8:15 AM 60.8 °F 57.2 °F 88% 29.80 in 2.5 mi WNW 10.4 mph - 0.01 in   Overcast
8:35 AM 60.8 °F 57.2 °F 88% 29.80 in 2.5 mi WNW 12.7 mph - 0.01 in   Overcast
8:55 AM 60.8 °F 57.2 °F 88% 29.80 in 5.0 mi WNW 12.7 mph 17.3 mph 0.01 in   Overcast
9:15 AM 60.8 °F 57.2 °F 88% 29.81 in 4.0 mi WNW 13.8 mph 20.7 mph N/A   Overcast
9:35 AM 60.8 °F 57.2 °F 88% 29.81 in 10.0 mi WNW 13.8 mph 21.9 mph N/A   Overcast
9:55 AM 60.8 °F 57.2 °F 88% 29.81 in 10.0 mi WNW 16.1 mph 20.7 mph N/A   Overcast
10:15 AM 60.8 °F 57.2 °F 88% 29.82 in 10.0 mi WNW 13.8 mph 18.4 mph N/A   Overcast
10:35 AM 60.8 °F 57.2 °F 88% 29.82 in 10.0 mi WNW 11.5 mph 19.6 mph N/A   Overcast
10:55 AM 60.8 °F 57.2 °F 88% 29.82 in 7.0 mi West 12.7 mph 18.4 mph N/A   Overcast
11:15 AM 60.8 °F 57.2 °F 88% 29.83 in 10.0 mi WNW 12.7 mph 19.6 mph N/A   Overcast
11:35 AM 60.8 °F 57.2 °F 88% 29.83 in 10.0 mi WNW 10.4 mph 18.4 mph N/A   Overcast
11:55 AM 62.6 °F 59.0 °F 88% 29.83 in 10.0 mi WNW 12.7 mph 19.6 mph N/A   Overcast
12:15 PM 62.6 °F 59.0 °F 88% 29.83 in 10.0 mi West 10.4 mph 17.3 mph N/A   Overcast
12:35 PM 62.6 °F 59.0 °F 88% 29.83 in 10.0 mi WNW 9.2 mph 18.4 mph N/A   Overcast
12:55 PM 62.6 °F 59.0 °F 88% 29.83 in 10.0 mi WNW 11.5 mph 18.4 mph N/A   Overcast
1:15 PM 62.6 °F 59.0 °F 88% 29.84 in 10.0 mi West 12.7 mph 19.6 mph N/A   Overcast
1:35 PM 62.6 °F 59.0 °F 88% 29.84 in 10.0 mi WNW 15.0 mph 23.0 mph N/A   Overcast
1:55 PM 62.6 °F 59.0 °F 88% 29.84 in 10.0 mi WNW 15.0 mph 19.6 mph N/A   Overcast
2:15 PM 62.6 °F 57.2 °F 82% 29.85 in 10.0 mi West 13.8 mph 23.0 mph N/A   Overcast
2:35 PM 62.6 °F 57.2 °F 82% 29.85 in 9.0 mi WNW 18.4 mph 24.2 mph N/A   Overcast
2:55 PM 62.6 °F 57.2 °F 82% 29.85 in 10.0 mi WNW 16.1 mph - N/A   Overcast
3:15 PM 62.6 °F 59.0 °F 88% 29.86 in 10.0 mi West 13.8 mph 18.4 mph N/A   Overcast
3:35 PM 62.6 °F 57.2 °F 82% 29.86 in 10.0 mi West 12.7 mph - N/A   Overcast
3:55 PM 60.8 °F 57.2 °F 88% 29.87 in 10.0 mi WNW 13.8 mph 19.6 mph N/A   Overcast
4:15 PM 62.6 °F 57.2 °F 82% 29.87 in 10.0 mi West 13.8 mph 18.4 mph N/A   Overcast
4:35 PM 62.6 °F 57.2 °F 82% 29.86 in 10.0 mi West 15.0 mph 20.7 mph N/A   Overcast
4:55 PM 62.6 °F 57.2 °F 82% 29.86 in 10.0 mi West 12.7 mph - N/A   Overcast
5:15 PM 62.6 °F 57.2 °F 82% 29.87 in 10.0 mi West 9.2 mph - N/A   Overcast
5:35 PM 62.6 °F 57.2 °F 82% 29.86 in 10.0 mi West 11.5 mph - N/A   Overcast
5:55 PM 62.6 °F 57.2 °F 82% 29.86 in 10.0 mi West 9.2 mph - N/A   Overcast
6:15 PM 62.6 °F 57.2 °F 82% 29.86 in 10.0 mi West 10.4 mph - N/A   Overcast
6:35 PM 62.6 °F 57.2 °F 82% 29.86 in 10.0 mi West 12.7 mph 19.6 mph N/A   Mostly Cloudy
6:55 PM 62.6 °F 57.2 °F 82% 29.87 in 10.0 mi West 11.5 mph - N/A   Scattered Clouds
7:15 PM 64.4 °F 57.2 °F 77% 29.87 in 10.0 mi West 18.4 mph 23.0 mph N/A   Scattered Clouds
7:35 PM 62.6 °F 57.2 °F 82% 29.88 in 10.0 mi West 12.7 mph 17.3 mph N/A   Mostly Cloudy
7:55 PM 62.6 °F 57.2 °F 82% 29.88 in 10.0 mi West 16.1 mph 24.2 mph N/A   Overcast
8:15 PM 62.6 °F 57.2 °F 82% 29.89 in 10.0 mi West 13.8 mph 20.7 mph N/A   Overcast
8:35 PM 62.6 °F 57.2 °F 82% 29.89 in 10.0 mi West 12.7 mph - N/A   Overcast
8:55 PM 62.6 °F 57.2 °F 82% 29.89 in 10.0 mi West 15.0 mph 19.6 mph N/A   Mostly Cloudy
9:15 PM 60.8 °F 57.2 °F 88% 29.89 in 10.0 mi West 11.5 mph 17.3 mph N/A   Scattered Clouds
9:35 PM 60.8 °F 57.2 °F 88% 29.89 in 10.0 mi West 6.9 mph - N/A   Partly Cloudy
9:55 PM 60.8 °F 57.2 °F 88% 29.90 in 10.0 mi West 8.1 mph - N/A   Clear
10:15 PM 60.8 °F 57.2 °F 88% 29.91 in 10.0 mi WNW 4.6 mph - N/A   Clear
10:35 PM 60.8 °F 57.2 °F 88% 29.91 in 10.0 mi West 5.8 mph - N/A   Clear
10:55 PM 59.0 °F 57.2 °F 94% 29.91 in 7.0 mi WSW 5.8 mph - N/A   Clear
11:15 PM 59.0 °F 57.2 °F 94% 29.90 in 6.0 mi West 9.2 mph - N/A   Clear
11:35 PM 60.8 °F 57.2 °F 88% 29.90 in 8.0 mi West 8.1 mph - N/A   Clear
11:55 PM 60.8 °F 57.2 °F 88% 29.91 in 8.0 mi North 4.6 mph - N/A   Clear